Davenport, IA

5:39 PM CDT on April 25, 2017 (GMT -0500)
Davenport Municipal

Weather History for KDVN - October, 2013

Change the Weather History Date:

Wednesday, October 2, 2013

  Actual Average Record
Temperature  
Mean Temperature 71 °F 57 °F  
Max Temperature 85 °F 69 °F 88 °F (1976)
Min Temperature 57 °F 45 °F 21 °F (2003)
Degree Days  
Heating Degree Days 0 9  
Month to date heating degree days 0 18  
Since 1 July heating degree days 99 153  
Cooling Degree Days 6 1  
Month to date cooling degree days 11 2  
Year to date cooling degree days 922 776  
Growing Degree Days 20 (Base 50)    
Moisture  
Dew Point 55 °F    
Average Humidity 61    
Maximum Humidity 90    
Minimum Humidity 31    
Precipitation  
Precipitation 0.00 in 0.10 in 1.48 in (2002)
Month to date precipitation 0.00 0.21  
Year to date precipitation 30.01 29.09  
Snow  
Snow 0.00 in - - ()
Month to date snowfall 0.0  
Since 1 July snowfall 0.0  
Since 1 September snowfall 0.0  
Snow Depth 0.00 in    
Sea Level Pressure  
Sea Level Pressure 30.00 in    
Wind  
Wind Speed 8 mph (ESE)    
Max Wind Speed 20 mph    
Max Gust Speed 24 mph    
Visibility 10 miles    
Events      
T = Trace of Precipitation, MM = Missing Value Source: NWS Daily Summary

Daily Weather History Graph

Daily Weather History Graph

Search for Another Location

Airport or City:

Trip Planner

Search our weather history database for the weather conditions in past years. The results will help you decide how hot, cold, wet, or windy it might be!

Date:

Astronomy

Oct. 02, 2013 Rise Set
Actual Time 7:00 AM CDT 6:41 PM CDT
Civil Twilight 6:32 AM CDT 7:09 PM CDT
Nautical Twilight 6:00 AM CDT 7:41 PM CDT
Astronomical Twilight 5:28 AM CDT 8:14 PM CDT
Moon 4:32 AM CDT (10/2) 5:19 PM CDT (10/2)
Length of Visible Light 12h 36m
Length of Day
11h 41m
Waning Crescent, 6% of the Moon is Illuminated
Oct 2
Waning Crescent
Oct 4
New
Oct 11
First Quarter
Oct 18
Full
Oct 26
Last Quarter

Hourly Weather History & Observations

Time (CDT) Temp. Heat Index Dew Point Humidity Pressure Visibility Wind Dir Wind Speed Gust Speed Precip Events Conditions
12:52 AM 59.0 °F - 55.9 °F 90% 29.99 in 7.0 mi NNW 3.5 mph - N/A   Clear
1:52 AM 60.1 °F - 57.0 °F 90% 30.01 in 9.0 mi SE 3.5 mph - N/A   Overcast
2:52 AM 60.1 °F - 57.0 °F 90% 30.01 in 9.0 mi Calm Calm - N/A   Mostly Cloudy
3:52 AM 62.1 °F - 55.9 °F 80% 30.03 in 10.0 mi ENE 3.5 mph - N/A   Mostly Cloudy
4:52 AM 63.0 °F - 57.0 °F 81% 30.03 in 10.0 mi ENE 5.8 mph - N/A   Overcast
5:52 AM 63.0 °F - 55.0 °F 75% 30.04 in 10.0 mi NE 8.1 mph - N/A   Mostly Cloudy
6:52 AM 62.1 °F - 54.0 °F 75% 30.06 in 10.0 mi NE 6.9 mph - N/A   Overcast
7:52 AM 63.0 °F - 53.1 °F 70% 30.06 in 10.0 mi ENE 8.1 mph - N/A   Mostly Cloudy
8:52 AM 68.0 °F - 48.9 °F 50% 30.07 in 10.0 mi East 11.5 mph - N/A   Partly Cloudy
9:52 AM 73.0 °F - 41.0 °F 31% 30.07 in 10.0 mi East 17.3 mph - N/A   Clear
10:52 AM 75.9 °F - 43.0 °F 31% 30.06 in 10.0 mi ESE 16.1 mph - N/A   Clear
11:52 AM 78.1 °F - 46.9 °F 33% 30.05 in 10.0 mi ESE 10.4 mph - N/A   Clear
12:52 PM 80.1 °F - 48.9 °F 34% 30.03 in 10.0 mi East 11.5 mph - N/A   Clear
1:52 PM 82.0 °F 81.2 °F 53.1 °F 37% 30.00 in 10.0 mi South 8.1 mph - N/A   Clear
2:52 PM 82.9 °F 82.6 °F 57.9 °F 42% 29.98 in 10.0 mi SSE 4.6 mph - N/A   Clear
3:52 PM 82.9 °F 83.2 °F 60.1 °F 46% 29.96 in 10.0 mi Variable 3.5 mph - N/A   Partly Cloudy
4:52 PM 82.9 °F 83.2 °F 60.1 °F 46% 29.94 in 10.0 mi SSE 5.8 mph - N/A   Partly Cloudy
5:52 PM 79.0 °F - 59.0 °F 50% 29.94 in 10.0 mi SSE 9.2 mph - N/A   Clear
6:52 PM 75.9 °F - 60.1 °F 58% 29.95 in 10.0 mi SSE 6.9 mph - N/A   Clear
7:52 PM 73.9 °F - 60.1 °F 62% 29.94 in 10.0 mi SSE 8.1 mph - N/A   Clear
8:52 PM 72.0 °F - 60.1 °F 66% 29.94 in 10.0 mi South 6.9 mph - N/A   Clear
9:52 PM 69.1 °F - 60.1 °F 73% 29.94 in 10.0 mi SE 6.9 mph - N/A   Clear
10:52 PM 66.9 °F - 59.0 °F 76% 29.94 in 10.0 mi ESE 5.8 mph - N/A   Partly Cloudy
11:52 PM 68.0 °F - 61.0 °F 78% 29.93 in 10.0 mi SE 5.8 mph - N/A   Mostly Cloudy